Temp
31 29 29 30 29 28 28 29 31 30 31 31 31 31 30 28 28 28 28 26 26 29
30 29 29 29 29 28 29 33 31 30 29 29 30 30 29 27 27 27 28 28 28 27
29 29 29 29 28 29 29 30 29 28 29 28 28 28 27 27 27 26 28 29 27 27
30 30 30 31 30 29 29 29 28 28 27 27 27 27 26 25 26 26 27 27 26 27
30 31 30 30 29 29 27 28 28 27 27 26 27 26 25 26 26 26 25 26 26 26
29 28 28 27 28 28 27 26 25 27 25 26 27 26 27 26 26 26 26 26 26 26
27 28 28 27 27 27 26 25 24 25 26 27 27 28 28 28 27 27 28 28 28 28
28 28 27 27 27 27 26 26 25 26 26 26 27 29 28 30 29 28 28 29 30 30
27 27 27 26 26 25 25 25 25 24 25 25 28 31 33 34 31 28 27 28 30 31
26 26 25 25 24 24 23 23 23 23 24 23 24 30 34 35 31 28 28 28 29 30
24 23 24 23 22 22 22 21 22 22 23 23 25 31 33 35 31 29 28 29 30 30
22 21 21 20 20 21 21 21 21 24 23 22 23 31 33 34 30 28 29 30 30 31
21 20 18 19 19 21 20 21 24 24 24 25 23 28 33 34 30 27 28 30 31 34
19 18 18 19 20 20 19 21 19 21 21 22 23 24 33 35 31 28 28 28 29 31
MSLP
1025.01 1025.32 1025.68 1025.93 1026.13 1026.27 1026.32 1026.43 1026.53 1026.70 1026.58 1026.51 1026.35 1026.23 1026.12 1026.09 1026.05 1025.89 1025.81 1025.70 1025.54 1025.27
1025.01 1025.30 1025.60 1025.80 1025.95 1026.10 1026.19 1026.06 1026.32 1026.40 1026.35 1026.19 1026.00 1025.94 1025.87 1025.86 1025.70 1025.58 1025.40 1025.24 1025.06 1024.73
1025.01 1025.28 1025.51 1025.72 1025.88 1025.99 1026.06 1026.25 1026.32 1026.21 1026.06 1025.87 1025.73 1025.68 1025.62 1025.53 1025.27 1025.21 1024.98 1024.61 1024.28 1023.96
1025.03 1025.22 1025.34 1025.54 1025.69 1025.82 1026.11 1026.30 1026.20 1026.10 1025.93 1025.77 1025.58 1025.38 1025.34 1025.24 1025.07 1024.83 1024.55 1024.22 1023.87 1023.35
1024.92 1025.08 1025.22 1025.42 1025.58 1025.83 1026.05 1025.95 1025.93 1025.85 1025.69 1025.47 1025.31 1025.12 1024.98 1024.84 1024.56 1024.14 1023.93 1023.34 1022.98 1022.48
1024.93 1025.03 1025.46 1025.48 1025.65 1025.86 1025.77 1025.64 1025.65 1025.46 1025.38 1025.31 1025.17 1024.87 1024.36 1024.16 1023.78 1023.36 1023.05 1022.61 1022.19 1021.57
1024.94 1025.35 1025.49 1025.56 1025.58 1025.71 1025.58 1025.46 1025.44 1025.39 1025.24 1025.03 1024.72 1024.25 1023.77 1023.33 1022.84 1022.29 1021.84 1021.51 1021.05 1020.53
1025.17 1025.27 1025.44 1025.64 1025.56 1025.70 1025.41 1025.33 1025.30 1025.15 1024.86 1024.52 1024.19 1023.56 1022.90 1022.32 1021.79 1021.42 1020.93 1020.52 1020.07 1019.39
1025.20 1025.41 1025.59 1025.62 1025.59 1025.43 1025.21 1025.18 1025.07 1024.88 1024.56 1023.93 1023.54 1023.10 1022.14 1021.38 1020.97 1020.78 1020.30 1019.63 1018.74 1018.24
1025.47 1025.75 1025.69 1025.59 1025.37 1025.11 1025.08 1025.08 1024.92 1024.62 1024.29 1023.55 1023.04 1022.55 1021.56 1020.87 1020.28 1019.87 1019.34 1018.51 1017.71 1016.91
1025.61 1025.97 1026.02 1025.56 1025.11 1025.13 1025.03 1024.93 1024.60 1024.25 1023.98 1023.52 1022.61 1022.07 1021.18 1020.19 1019.62 1019.16 1018.51 1017.73 1016.72 1015.80
1025.87 1025.91 1025.64 1025.19 1025.27 1025.21 1025.02 1024.59 1024.34 1024.05 1023.65 1023.21 1022.42 1021.65 1020.72 1019.67 1019.14 1018.48 1017.83 1016.86 1015.78 1014.96
1026.08 1025.60 1025.38 1025.33 1025.11 1025.08 1024.84 1024.56 1024.05 1023.66 1023.21 1022.72 1021.96 1021.11 1020.33 1019.13 1018.47 1017.78 1016.92 1015.75 1014.90 1014.25
1025.66 1025.64 1025.44 1025.17 1025.05 1024.90 1024.90 1024.43 1023.90 1023.39 1022.65 1022.00 1021.35 1020.67 1019.53 1018.58 1017.74 1017.01 1015.84 1015.10 1013.88 1013.23
Wind_Speed
6 4 4 3 2 1 1 2 2 3 4 5 5 4 4 3 4 5 4 7 6 7
6 5 4 3 2 2 2 3 4 5 5 5 5 5 5 4 5 5 5 6 6 6
5 5 4 3 3 3 3 3 4 5 5 6 5 5 5 5 5 5 7 7 7 8
5 4 4 3 3 3 3 4 4 5 5 5 6 5 5 6 7 7 8 9 9 11
4 4 3 3 3 3 4 4 4 5 5 6 6 6 6 8 8 9 10 11 11 12
4 4 3 3 2 3 4 4 5 5 6 7 7 8 7 7 9 10 11 12 12 14
4 3 2 2 3 3 4 5 5 5 6 7 7 9 9 10 10 10 11 12 14 14
3 3 3 3 3 4 4 4 5 6 7 8 7 7 10 11 11 10 11 12 14 14
3 2 2 2 3 4 4 4 5 6 8 10 8 19 20 18 11 9 11 13 14 15
3 3 3 3 3 6 6 7 7 7 8 10 10 20 22 23 11 11 11 13 15 15
2 3 4 4 6 6 5 7 8 9 9 10 10 21 22 23 13 11 13 14 16 17
2 3 4 6 6 6 6 7 8 9 10 10 11 21 23 22 12 11 13 15 16 17
3 4 5 5 5 5 5 7 7 10 9 13 11 19 22 21 10 11 12 15 10 23
4 4 3 4 4 4 5 6 6 9 10 10 11 11 22 24 12 11 12 11 12 12
Wind_Direction
125 126 122 119 106 53 27 347 320 341 330 321 318 314 306 294 280 276 271 267 261 268
124 121 122 99 71 50 10 337 350 327 318 316 312 308 300 290 286 276 275 272 265 263
134 127 119 100 52 31 1 339 326 322 319 315 307 301 298 295 290 281 285 283 285 286
132 124 109 90 55 20 345 321 319 312 305 300 301 302 295 284 281 282 290 288 281 282
127 110 95 63 31 349 305 309 307 300 298 301 300 288 278 284 289 284 283 280 276 274
105 86 72 47 353 312 312 311 309 306 299 294 290 287 284 276 278 275 274 275 277 277
97 91 55 358 337 324 312 310 304 288 280 286 287 292 293 284 278 274 273 273 272 275
94 59 15 327 320 296 300 306 287 298 295 298 299 297 300 298 294 285 279 278 282 278
72 34 313 317 311 310 324 315 314 311 306 310 311 314 313 309 302 290 283 284 286 284
37 347 337 325 324 352 342 329 321 316 316 308 306 312 313 311 307 292 285 285 287 285
17 319 324 346 2 349 335 324 323 319 314 302 302 313 312 316 312 294 285 280 281 287
328 313 348 7 348 331 326 327 321 314 305 302 297 309 322 317 312 297 290 288 288 293
323 1 359 338 324 316 316 309 308 305 300 295 301 308 311 322 315 307 298 294 295 300
6 337 297 311 317 313 302 302 295 299 301 305 296 292 317 324 320 310 305 316 309 305